[Iaude] MPEC T25: 2023 TM [a=2.84,e=0.68,i=11.5,H=24.1]
    mpec at marsden.cfa.harvard.edu 
    mpec at marsden.cfa.harvard.edu
       
    Wed Oct  4 21:05:20 EDT 2023
    
    
  
M.P.E.C. 2023-T25                               Issued 2023 October 5, 01:02 UT
     The Minor Planet Electronic Circulars contain information on unusual
         minor planets, routine data on comets and natural satellites,
         and occasional editorial announcements.  They are published
    on behalf of Division F of the International Astronomical Union by the
          Minor Planet Center, Smithsonian Astrophysical Observatory,
                          Cambridge, MA 02138, U.S.A.
			  
             Prepared using the Tamkin Foundation Computer Network
                              MPC at CFA.HARVARD.EDU
            URL https://www.minorplanetcenter.net/    ISSN 1523-6714
                                    2023 TM                                     
Observations:
     K23T00M  C2023 10 01.38864322 31 42.476+21 24 03.52         19.64GVET025F52
     K23T00M  C2023 10 01.40690622 31 57.313+21 26 31.13         19.93GVET025F52
     K23T00M  C2023 10 01.42024122 32 08.117+21 28 18.28         19.85GVET025F51
     K23T00M  C2023 10 01.43408222 32 19.360+21 30 08.79         19.80GVET025F51
     K23T00M* C2023 10 03.40153122 56 09.411+25 00 30.81         20.35iXET025F51
     K23T00M  C2023 10 03.41122022 56 14.907+25 01 18.41         20.07iXET025F51
     K23T00M  C2023 10 03.43071422 56 26.023+25 02 54.18         19.92iXET025F51
     K23T00M  C2023 10 03.52451422 57 19.828+25 10 21.35               VET025F51
     K23T00M IC2023 10 03.85333123 00 39.74 +25 35 48.2          19.9 GVET025L01
     K23T00M pC2023 10 03.85585923 00 41.08 +25 35 59.3          19.6 GVET025L01
     K23T00M pC2023 10 03.85838723 00 42.36 +25 36 10.9          19.6 GVET025L01
     K23T00M pC2023 10 03.86091123 00 43.76 +25 36 22.5          19.7 GVET025L01
     K23T00M KC2023 10 03.86343423 00 45.18 +25 36 33.8          20.0 GVET025L01
     K23T00M KC2023 10 03.90894123 01 09.79 +25 40 01.0          20.3 GVET025104
     K23T00M KC2023 10 03.91419923 01 12.61 +25 40 25.0          19.8 GVET025104
     K23T00M 7C2023 10 03.92355923 01 18.857+25 41 18.58         20.2 GVET025Z84
     K23T00M KC2023 10 03.92471123 01 18.20 +25 41 11.8          20.0 GVET025104
     K23T00M 7C2023 10 03.92578723 01 20.048+25 41 28.42         20.2 GVET025Z84
     K23T00M 7C2023 10 03.92798823 01 21.196+25 41 38.06         20.4 GVET025Z84
     K23T00M KB2023 10 03.93319723 01 23.72 +25 41 49.9          20.0 GVET025I93
     K23T00M KB2023 10 03.94040923 01 27.53 +25 42 21.1          20.4 GVET025I93
     K23T00M KB2023 10 03.94746823 01 31.26 +25 42 52.4          19.8 GVET025I93
     K23T00M KC2023 10 04.06779323 02 42.41 +25 51 42.8                uET025H21
     K23T00M KC2023 10 04.07617923 02 46.83 +25 52 20.0                uET025H21
     K23T00M KC2023 10 04.07757823 02 47.54 +25 52 26.0                uET025H21
     K23T00M KC2023 10 04.11878323 03 10.70 +25 55 28.7          20.2 GXET025858
     K23T00M KC2023 10 04.12579523 03 14.31 +25 55 59.3          20.3 GXET025858
     K23T00M KC2023 10 04.13274423 03 17.90 +25 56 30.1          20.1 GXET025858
     K23T00M  C2023 10 04.15251723 03 28.147+25 57 57.96         19.7 GVET025H01
     K23T00M  C2023 10 04.15955823 03 32.683+25 58 24.56         20.2 GVET025654
     K23T00M  C2023 10 04.15958023 03 31.752+25 58 28.51         20.1 GVET025H01
     K23T00M  C2023 10 04.16406223 03 35.001+25 58 44.23         20.2 GVET025654
     K23T00M  C2023 10 04.16727423 03 35.668+25 59 01.75         20.0 GVET025H01
     K23T00M  C2023 10 04.17381523 03 38.986+25 59 29.91         20.1 GVET025H01
     K23T00M  C2023 10 04.23410723 04 10.443+26 03 43.90         20.3 GVET025654
     K23T00M  C2023 10 04.23811723 04 12.451+26 04 00.78         20.3 GVET025654
Observer details:
104 San Marcello Pistoiese.  Observers P. Bacci, M. Maestripieri.  Measurers
    P. Bacci, L. Tesi, G. Fagioli.  0.60-m F4 Reflector + CCD.
654 Table Mountain Observatory, Wrightwood-PHMC.  Observers N. Evans, P. Choi,
    N. Saini, C. Zhai, R. Trahan, M. Shao.  1.0-m Reflector + CCD.
858 Tebbutt Observatory, Edgewood.  Observer F. B. Zoltowski.  0.51-m f/8.1
    Schmidt-Cassegrain + CCD.
F51 Pan-STARRS 1, Haleakala.  Observers J. Bulger, K. Chambers, T. Dukes, T.
    Lowe, P. Minguez, A. Schultz, I. Smith.  Measurers S. Chastel, J.
    Fairlamb, M. Huber, Y. Ramanjooloo, R. Wainscoat, R. Weryk, K. Chambers,
    T. de Boer, J. Bulger, H. Gao, C.-C. Lin, T. Lowe, E. Magnier, P. Minguez,
    A. Schultz, I. Smith.  1.8-m Ritchey-Chretien + CCD.
F52 Pan-STARRS 2, Haleakala.  Observers J. Bulger, K. Chambers, T. Dukes, T.
    Lowe, P. Minguez, A. Schultz, I. Smith.  Measurers S. Chastel, J.
    Fairlamb, M. Huber, Y. Ramanjooloo, R. Wainscoat, R. Weryk.  1.8-m
    Ritchey-Chretien + CCD.
H01 Magdalena Ridge Observatory, Socorro.  Observers W. H. Ryan, E. V. Ryan.
    Measurer W. H. Ryan.  2.4-m f/8.9 Ritchey-Chretien + CCD.
H21 Astronomical Research Observatory, Westfield.  Observer R. Holmes.
    Measurers T. Linder, R. Holmes, L. Horn.  0.76-m f/3.0 astrograph + CCD.
I93 St Pardon de Conques.  Observer F. Losse.  0.40-m f/3.7 reflector + CMO.
L01 Visnjan Observatory, Tican.  Observer K. Korlevic.  1.0-m f/2.9 reflector
    + CCD.
Z84 Calar Alto-Schmidt.  Observers F. Ocana, M. Micheli, R. Kresken, L.
    Conversi.  Measurers F. Ocana, M. Micheli.  0.8-m f/3 Schmidt + CCD.
Orbital elements:
2023 TM                                                  Earth MOID = 0.0035 AU
Epoch 2023 Sept. 13.0 TT = JDT 2460200.5                Veres                   
M   3.62146              (2000.0)            P               Q                  
n   0.20591853     Peri.  321.72838     +0.76239584     +0.64706969             
a   2.8401357      Node   357.90701     -0.53342898     +0.62202845             
e   0.6750851      Incl.   11.54148     -0.36634151     +0.44088708             
P   4.79           H   24.19          G   0.15           U   9                  
Residuals in seconds of arc
231001 F52  0.2-  0.1-    231003 L01  0.1-  0.2-    231004 H21  0.0   0.1+
231001 F52  0.1+  0.1-    231003 104  0.2-  0.4-    231004 858  0.4+  0.0
231001 F51  0.0   0.1+    231003 104  0.1+  0.1+    231004 858  0.2+  0.3-
231001 F51  0.3+  0.3+    231003 Z84  0.1+  0.2+    231004 858  0.3+  0.0
231003 F51  0.0   0.3+    231003 104  0.0   0.2+    231004 H01  0.0   0.1+
231003 F51  0.3-  0.0     231003 Z84  0.3+  0.1+    231004 654  0.0   0.1-
231003 F51  0.2-  0.1+    231003 Z84  0.1+  0.1-    231004 H01  0.0   0.0
231003 F51  0.4-  0.1+    231003 I93  0.0   0.7+    231004 654  0.1+  0.1-
231003 L01  0.1-  0.4+    231003 I93  0.2-  0.1-    231004 H01  0.0   0.0
231003 L01  0.4-  0.0     231003 I93  0.4-  0.1-    231004 H01  0.0   0.0
231003 L01  1.5-  0.0     231004 H21  0.2-  0.4+    231004 654  0.1-  0.1-
231003 L01  0.9-  0.1+    231004 H21  0.3+  0.3+    231004 654  0.1-  0.0
Ephemeris:
2023 TM                  a,e,i = 2.84, 0.68, 12                  q = 0.9228
Date    TT    R. A. (2000) Decl.     Delta      r    Elong.  Phase     V
2023 09 05    13 41 02.3 -38 45 39   0.1758  0.9335    60.2   110.4    24.5
...
2023 09 20    16 18 10.9 -37 43 26   0.05650 0.9900    73.5   103.4    21.7
...
2023 09 28    21 23 34.7 +08 58 56   0.04655 1.0365   136.6    41.7    19.2
...
2023 10 04    23 02 01.0 +25 47 13   0.08887 1.0773   148.4    29.1    20.4
2023 10 05    23 10 38.8 +26 52 55   0.09703 1.0845   148.8    28.5    20.6
2023 10 06    23 18 06.7 +27 46 02   0.1054  1.0918   149.2    28.0    20.7
...
2023 10 12    23 47 45.1 +30 35 22   0.1576  1.1376   150.1    25.9    21.6
...
2023 10 20    00 08 35.0 +31 33 41   0.2321  1.2033   150.4    24.1    22.5
...
2023 11 04    00 31 14.9 +31 03 26   0.3874  1.3356   147.7    23.4    23.9
M. P. C. Staff               (C) Copyright 2023 MPC           M.P.E.C. 2023-T25
    
    
More information about the Iaude
mailing list